TimeCST,TemperatureF,Dew PointF,Humidity,Sea Level PressureIn,VisibilityMPH,Wind Direction,Wind SpeedMPH,Gust SpeedMPH,PrecipitationIn,Events,Conditions,WindDirDegrees,DateUTC
12:53 AM,37.9,32.0,79,30.04,10.0,NNW,5.8,-,N/A,,Overcast,330,2012-11-07 06:53:00
1:53 AM,37.9,32.0,79,30.06,10.0,NW,10.4,-,N/A,,Overcast,310,2012-11-07 07:53:00
2:53 AM,37.9,32.0,79,30.08,10.0,NW,9.2,-,N/A,,Overcast,320,2012-11-07 08:53:00
3:05 AM,37.4,32.0,81,30.03,10.0,NW,5.8,-,N/A,,Overcast,320,2012-11-07 09:05:00
3:53 AM,37.9,33.1,83,30.09,10.0,WNW,4.6,-,N/A,,Overcast,300,2012-11-07 09:53:00
4:53 AM,37.9,33.1,83,30.11,10.0,WNW,5.8,-,N/A,,Overcast,300,2012-11-07 10:53:00
5:51 AM,37.4,33.8,87,30.05,10.0,NW,3.5,-,N/A,,Overcast,310,2012-11-07 11:51:00
5:53 AM,37.9,33.1,83,30.11,10.0,NW,3.5,-,N/A,,Overcast,310,2012-11-07 11:53:00
6:53 AM,37.0,33.1,86,30.12,10.0,WNW,3.5,-,N/A,,Overcast,290,2012-11-07 12:53:00
7:53 AM,37.9,34.0,86,30.14,10.0,WNW,3.5,-,N/A,,Overcast,290,2012-11-07 13:53:00
8:53 AM,39.9,34.0,79,30.15,10.0,WNW,5.8,-,N/A,,Overcast,300,2012-11-07 14:53:00
9:53 AM,43.0,34.0,71,30.15,10.0,NNW,4.6,-,N/A,,Scattered Clouds,330,2012-11-07 15:53:00
10:53 AM,46.0,33.1,61,30.14,10.0,Calm,Calm,-,N/A,,Clear,0,2012-11-07 16:53:00
11:53 AM,45.0,28.9,53,30.12,10.0,Calm,Calm,-,N/A,,Scattered Clouds,0,2012-11-07 17:53:00
12:53 PM,48.0,28.9,48,30.10,10.0,SW,5.8,-,N/A,,Overcast,230,2012-11-07 18:53:00
1:53 PM,46.0,30.0,54,30.09,10.0,South,6.9,-,N/A,,Overcast,190,2012-11-07 19:53:00
2:53 PM,46.0,30.9,56,30.09,10.0,South,6.9,-,N/A,,Overcast,190,2012-11-07 20:53:00
3:53 PM,46.0,32.0,58,30.09,10.0,SSW,6.9,-,N/A,,Overcast,210,2012-11-07 21:53:00
4:53 PM,43.0,33.1,68,30.08,10.0,SSE,4.6,-,N/A,,Overcast,160,2012-11-07 22:53:00
5:53 PM,42.1,34.0,73,30.09,10.0,SSE,4.6,-,N/A,,Overcast,150,2012-11-07 23:53:00
6:53 PM,37.9,32.0,79,30.09,10.0,SE,5.8,-,N/A,,Clear,140,2012-11-08 00:53:00
7:53 PM,37.9,32.0,79,30.07,10.0,SSE,8.1,-,N/A,,Clear,150,2012-11-08 01:53:00
8:53 PM,39.0,33.1,79,30.07,10.0,SSE,8.1,-,N/A,,Clear,160,2012-11-08 02:53:00
9:53 PM,39.0,33.1,79,30.07,10.0,SSE,8.1,-,N/A,,Clear,160,2012-11-08 03:53:00
10:53 PM,37.9,32.0,79,30.06,10.0,SSE,9.2,-,N/A,,Clear,150,2012-11-08 04:53:00
11:53 PM,37.9,32.0,79,30.06,10.0,South,9.2,-,N/A,,Clear,170,2012-11-08 05:53:00